GAF359 EDDN-EDDC

Flight info

Callsign GAF359
Flight time 0h 33m
Altitude 19000
Route ERETO1C ERETO Z715 ABKIS Q240 DRN
Aircraft A359/H-SDE2E3GHIJ3J4J5LM1ORWXY/LB1D1

Departure

Time 2026-04-28 14:17
Airport Nuremberg Airport (EDDN)

Arrival

Time 2026-04-28 14:50
Airport Dresden Airport (EDDC)
Time Latitude Longitude Altitude Speed Heading
2026-04-28 13:53 49.49533 11.08566 1040 ft 0 kts 12°
2026-04-28 14:11 49.49557 11.08573 1039 ft 8 kts 10°
2026-04-28 14:12 49.49612 11.08498 1038 ft 14 kts 280°
2026-04-28 14:12 49.49588 11.08365 1038 ft 12 kts 204°
2026-04-28 14:12 49.49536 11.08316 1038 ft 6 kts 252°
2026-04-28 14:12 49.49542 11.08209 1036 ft 14 kts 278°
2026-04-28 14:13 49.49559 11.08041 1036 ft 18 kts 278°
2026-04-28 14:13 49.49580 11.07840 1036 ft 19 kts 285°
2026-04-28 14:13 49.49635 11.07779 1037 ft 8 kts 346°
2026-04-28 14:13 49.49677 11.07728 1038 ft 9 kts 301°
2026-04-28 14:14 49.49701 11.07587 1038 ft 23 kts 278°
2026-04-28 14:14 49.49737 11.07223 1029 ft 44 kts 278°
2026-04-28 14:14 49.49788 11.06701 1023 ft 50 kts 278°
2026-04-28 14:14 49.49831 11.06258 1022 ft 18 kts 278°
2026-04-28 14:15 49.49847 11.06095 1023 ft 18 kts 279°
2026-04-28 14:15 49.49924 11.05960 1023 ft 18 kts 331°
2026-04-28 14:15 49.50028 11.05987 1021 ft 14 kts 61°
2026-04-28 14:15 49.50034 11.06094 1025 ft 0 kts 100°
2026-04-28 14:16 49.50031 11.06123 1024 ft 21 kts 97°
2026-04-28 14:16 49.49971 11.06769 1022 ft 98 kts 98°
2026-04-28 14:16 49.49839 11.08120 1052 ft 156 kts 98°
2026-04-28 14:17 49.49679 11.09760 1840 ft 151 kts 98°
2026-04-28 14:17 49.49564 11.11365 2711 ft 153 kts 91°
2026-04-28 14:17 49.49597 11.13118 3146 ft 175 kts 82°
2026-04-28 14:17 49.49877 11.15057 3419 ft 196 kts 71°
2026-04-28 14:18 49.50462 11.17058 3770 ft 213 kts 60°
2026-04-28 14:18 49.51369 11.18950 4242 ft 226 kts 50°
2026-04-28 14:18 49.52451 11.20738 4920 ft 229 kts 47°
2026-04-28 14:18 49.53555 11.22519 5679 ft 231 kts 48°
2026-04-28 14:19 49.54659 11.24318 6427 ft 232 kts 48°
2026-04-28 14:19 49.55764 11.26123 7180 ft 232 kts 48°
2026-04-28 14:19 49.56857 11.27915 7906 ft 233 kts 47°
2026-04-28 14:19 49.57958 11.29733 8674 ft 231 kts 47°
2026-04-28 14:20 49.59174 11.31370 9325 ft 241 kts 34°
2026-04-28 14:20 49.60829 11.32424 9825 ft 275 kts 12°
2026-04-28 14:20 49.62778 11.32962 10590 ft 296 kts
2026-04-28 14:20 49.64906 11.33473 11177 ft 320 kts
2026-04-28 14:21 49.67186 11.34035 11723 ft 345 kts
2026-04-28 14:21 49.69646 11.34659 12232 ft 371 kts
2026-04-28 14:21 49.72261 11.35332 12971 ft 389 kts
2026-04-28 14:21 49.74955 11.36034 14069 ft 396 kts
2026-04-28 14:22 49.77685 11.36751 14899 ft 400 kts
2026-04-28 14:22 49.80446 11.37476 15597 ft 405 kts
2026-04-28 14:22 49.83249 11.38214 16292 ft 411 kts
2026-04-28 14:22 49.86086 11.38960 17195 ft 416 kts
2026-04-28 14:23 49.88939 11.39716 18135 ft 415 kts
2026-04-28 14:23 49.91754 11.40799 18814 ft 423 kts 17°
2026-04-28 14:23 49.94394 11.42966 19108 ft 437 kts 33°
2026-04-28 14:23 49.96751 11.45964 19172 ft 440 kts 39°
2026-04-28 14:24 49.98952 11.49286 19172 ft 441 kts 43°
2026-04-28 14:24 50.01070 11.52734 19177 ft 442 kts 44°
2026-04-28 14:24 50.03176 11.56230 19186 ft 442 kts 44°
2026-04-28 14:24 50.05284 11.59710 19185 ft 442 kts 44°
2026-04-28 14:25 50.07414 11.63174 19193 ft 448 kts 43°
2026-04-28 14:25 50.09604 11.66722 19278 ft 454 kts 44°
2026-04-28 14:25 50.11741 11.70286 19805 ft 450 kts 44°
2026-04-28 14:25 50.13869 11.73873 20652 ft 451 kts 44°
2026-04-28 14:26 50.16010 11.77484 21398 ft 455 kts 44°
2026-04-28 14:26 50.18115 11.81176 22278 ft 456 kts 49°
2026-04-28 14:26 50.19941 11.85208 23408 ft 452 kts 53°
2026-04-28 14:26 50.21643 11.89290 24420 ft 447 kts 54°
2026-04-28 14:27 50.23295 11.93419 25151 ft 449 kts 55°
2026-04-28 14:27 50.24933 11.97603 25770 ft 453 kts 56°
2026-04-28 14:27 50.26575 12.01830 26247 ft 456 kts 56°
2026-04-28 14:27 50.28224 12.05955 26133 ft 442 kts 53°
2026-04-28 14:28 50.29933 12.09932 25574 ft 444 kts 52°
2026-04-28 14:28 50.31745 12.13974 25267 ft 465 kts 51°
2026-04-28 14:28 50.33602 12.18116 25191 ft 475 kts 53°
2026-04-28 14:28 50.35325 12.22622 25483 ft 486 kts 57°
2026-04-28 14:29 50.36959 12.27221 26403 ft 481 kts 58°
2026-04-28 14:29 50.38526 12.31804 27434 ft 475 kts 59°
2026-04-28 14:29 50.40056 12.36367 28264 ft 474 kts 59°
2026-04-28 14:29 50.41609 12.41021 28391 ft 488 kts 59°
2026-04-28 14:30 50.43204 12.45809 28533 ft 501 kts 59°
2026-04-28 14:30 50.44833 12.50700 28756 ft 510 kts 59°
2026-04-28 14:30 50.46483 12.55661 29083 ft 513 kts 59°
2026-04-28 14:30 50.48103 12.60553 28945 ft 497 kts 59°
2026-04-28 14:31 50.49676 12.65312 28629 ft 485 kts 59°
2026-04-28 14:31 50.51217 12.69977 28148 ft 478 kts 59°
2026-04-28 14:31 50.52742 12.74589 27603 ft 472 kts 59°
2026-04-28 14:31 50.54246 12.79141 27066 ft 467 kts 59°
2026-04-28 14:32 50.55747 12.83687 26353 ft 476 kts 59°
2026-04-28 14:32 50.57294 12.88363 26083 ft 486 kts 59°
2026-04-28 14:32 50.58847 12.93079 25790 ft 483 kts 59°
2026-04-28 14:32 50.60264 12.97813 25506 ft 472 kts 66°
2026-04-28 14:33 50.61176 13.02722 25286 ft 463 kts 77°
2026-04-28 14:33 50.61391 13.07728 24918 ft 457 kts 92°
2026-04-28 14:33 50.60756 13.12601 24395 ft 455 kts 109°
2026-04-28 14:33 50.59263 13.16956 23828 ft 452 kts 127°
2026-04-28 14:34 50.54328 13.22611 22388 ft 432 kts 163°
2026-04-28 14:34 50.51427 13.23469 21130 ft 420 kts 181°
2026-04-28 14:34 50.49522 13.23220 20300 ft 413 kts 194°
2026-04-28 14:35 50.46138 13.20869 18754 ft 396 kts 220°
2026-04-28 14:35 50.44304 13.17758 17526 ft 384 kts 241°
2026-04-28 14:35 50.43404 13.13976 16745 ft 360 kts 263°
2026-04-28 14:35 50.43489 13.10171 15911 ft 343 kts 286°
2026-04-28 14:36 50.44205 13.06664 14981 ft 335 kts 286°
2026-04-28 14:36 50.44862 13.03191 13936 ft 332 kts 293°
2026-04-28 14:36 50.46105 12.99937 13138 ft 366 kts 311°
2026-04-28 14:36 50.48055 12.97298 13016 ft 369 kts 328°
2026-04-28 14:37 50.50400 12.95935 12704 ft 356 kts 350°
2026-04-28 14:37 50.52841 12.96121 12314 ft 350 kts 13°
2026-04-28 14:37 50.55100 12.97575 12208 ft 362 kts 26°
2026-04-28 14:37 50.57248 12.99593 12205 ft 350 kts 31°
2026-04-28 14:38 50.59229 13.01679 12112 ft 345 kts 31°
2026-04-28 14:38 50.61309 13.03857 12032 ft 370 kts 31°
2026-04-28 14:38 50.63381 13.06333 11891 ft 376 kts 38°
2026-04-28 14:38 50.65376 13.08995 11646 ft 374 kts 39°
2026-04-28 14:39 50.67330 13.11681 11389 ft 373 kts 40°
2026-04-28 14:39 50.69271 13.14394 11124 ft 371 kts 39°
2026-04-28 14:39 50.71193 13.17097 10868 ft 370 kts 40°
2026-04-28 14:39 50.73098 13.19783 10727 ft 358 kts 40°
2026-04-28 14:40 50.74875 13.22280 10394 ft 328 kts 39°
2026-04-28 14:40 50.75468 13.23023 10257 ft 319 kts 34°
2026-04-28 14:40 50.78700 13.24767 9530 ft 283 kts
2026-04-28 14:40 50.80620 13.25103 8884 ft 274 kts
2026-04-28 14:41 50.82513 13.25385 8114 ft 273 kts
2026-04-28 14:41 50.84391 13.25668 7391 ft 269 kts
2026-04-28 14:41 50.86241 13.25954 6726 ft 265 kts
2026-04-28 14:41 50.88086 13.26223 5922 ft 268 kts
2026-04-28 14:42 50.89870 13.26880 5208 ft 261 kts 27°
2026-04-28 14:42 50.91230 13.28672 4578 ft 251 kts 55°
2026-04-28 14:42 50.91826 13.31210 4124 ft 247 kts 83°
2026-04-28 14:42 50.91791 13.33955 3967 ft 251 kts 89°
2026-04-28 14:43 50.91706 13.36727 3957 ft 253 kts 90°
2026-04-28 14:43 50.91632 13.39511 3972 ft 252 kts 88°
2026-04-28 14:43 50.91899 13.42204 3970 ft 245 kts 68°
2026-04-28 14:43 50.92618 13.44664 3974 ft 249 kts 61°
2026-04-28 14:44 50.93502 13.47005 3976 ft 246 kts 53°
2026-04-28 14:44 50.94553 13.49142 3981 ft 245 kts 50°
2026-04-28 14:44 50.95627 13.51233 3979 ft 244 kts 50°
2026-04-28 14:44 50.96679 13.53348 3983 ft 243 kts 53°
2026-04-28 14:45 50.97760 13.55263 3987 ft 224 kts 43°
2026-04-28 14:45 50.98885 13.56846 3987 ft 208 kts 41°
2026-04-28 14:45 50.99946 13.58280 3998 ft 192 kts 40°
2026-04-28 14:45 51.00605 13.59174 3940 ft 185 kts 41°
2026-04-28 14:46 51.01893 13.60953 3620 ft 184 kts 42°
2026-04-28 14:46 51.02871 13.62297 3330 ft 187 kts 41°
2026-04-28 14:46 51.03849 13.63635 3076 ft 183 kts 41°
2026-04-28 14:46 51.04811 13.64951 2853 ft 180 kts 42°
2026-04-28 14:47 51.05725 13.66204 2580 ft 166 kts 42°
2026-04-28 14:47 51.06288 13.66976 2464 ft 157 kts 42°
2026-04-28 14:47 51.07089 13.68078 2230 ft 147 kts 41°
2026-04-28 14:47 51.07845 13.69115 2034 ft 139 kts 42°
2026-04-28 14:48 51.08546 13.70081 1858 ft 128 kts 43°
2026-04-28 14:48 51.09412 13.71268 1600 ft 123 kts 42°
2026-04-28 14:48 51.09841 13.71866 1442 ft 119 kts 43°
2026-04-28 14:48 51.10473 13.72721 1290 ft 121 kts 43°
2026-04-28 14:49 51.11136 13.73636 1100 ft 127 kts 43°
2026-04-28 14:49 51.11808 13.74546 1002 ft 128 kts 43°
2026-04-28 14:49 51.12475 13.75470 821 ft 125 kts 42°
2026-04-28 14:49 51.13111 13.76343 751 ft 110 kts 40°
2026-04-28 14:50 51.13617 13.77046 735 ft 83 kts 41°
2026-04-28 14:50 51.13874 13.77426 734 ft 28 kts 54°
2026-04-28 14:50 51.13889 13.77462 734 ft 1 kts 50°
2026-04-28 14:50 51.13904 13.77434 734 ft 6 kts 266°
2026-04-28 14:51 51.13805 13.77292 736 ft 42 kts 220°
2026-04-28 14:51 51.13483 13.76859 738 ft 67 kts 220°
2026-04-28 14:51 51.13145 13.76403 751 ft 60 kts 220°
2026-04-28 14:51 51.12839 13.75980 755 ft 56 kts 223°
2026-04-28 14:52 51.12631 13.75684 772 ft 34 kts 223°
2026-04-28 14:52 51.12489 13.75519 775 ft 13 kts 177°
2026-04-28 14:52 51.12413 13.75612 772 ft 18 kts 122°
2026-04-28 14:52 51.12379 13.75745 771 ft 0 kts 110°
2026-04-28 14:53 51.12376 13.75759 771 ft 6 kts 110°
2026-04-28 14:53 51.12414 13.75872 770 ft 17 kts 43°
2026-04-28 14:54 51.12456 13.75995 769 ft 12 kts 77°
2026-04-28 14:54 51.12458 13.76101 766 ft 0 kts 90°